When you browse on this site, cookies collect data to enhance your experience and personalize the content and advertising you see.
Visit our Privacy Policy to learn more. By continuing to use the site, you agree to this use of cookies and data.
  • In Portugal
  • List of Countries
  • For 7 days
  • Water Temperature
  • Weather Map
  • Weather Widgets
  • user-avatar
    Login

    Hourly Weather Mishutino

    Today, 24 August, Saturday

    Time Temperature Precipitation Wind Pressure Humidity
    00:00 +13°C° 0 mm 2 mps 751 mmHg 88%
    01:00 +12°C° 0 mm 3 mps 751 mmHg 88%
    02:00 +12°C° 0 mm 3 mps 751 mmHg 88%
    03:00 +13°C° 0 mm 3 mps 750 mmHg 85%
    04:00 +14°C° 0 mm 4 mps 750 mmHg 82%
    05:00 +14°C° 0 mm 4 mps 749 mmHg 79%
    06:00 +14°C° 0.1 mm 4 mps 749 mmHg 80%
    07:00 +15°C° 0.1 mm 4 mps 749 mmHg 81%
    08:00 +15°C° 0.1 mm 4 mps 749 mmHg 81%
    09:00 +15°C° 0 mm 4 mps 748 mmHg 81%
    10:00 +17°C° 0 mm 4 mps 748 mmHg 80%
    11:00 +16°C° 0 mm 5 mps 748 mmHg 79%
    12:00 +16°C° 0 mm 5 mps 748 mmHg 78%
    13:00 +17°C° 0 mm 5 mps 748 mmHg 76%
    14:00 +17°C° 0 mm 5 mps 748 mmHg 75%
    15:00 +18°C° 0.1 mm 4 mps 748 mmHg 75%
    16:00 +19°C° 0.1 mm 4 mps 748 mmHg 75%
    17:00 +19°C° 0.1 mm 3 mps 748 mmHg 74%
    18:00 +17°C° 0 mm 3 mps 748 mmHg 78%
    19:00 +16°C° 0 mm 3 mps 748 mmHg 81%
    20:00 +14°C° 0 mm 2 mps 749 mmHg 85%
    21:00 +14°C° 0 mm 2 mps 749 mmHg 87%
    22:00 +13°C° 0 mm 2 mps 749 mmHg 90%
    23:00 +12°C° 0 mm 2 mps 750 mmHg 92%

    Tomorrow, 25 August, Sunday

    Time Temperature Precipitation Wind Pressure Humidity
    00:00 +12°C° 0 mm 2 mps 750 mmHg 94%
    01:00 +10°C° 0 mm 2 mps 750 mmHg 96%
    02:00 +10°C° 0 mm 2 mps 751 mmHg 98%
    03:00 +9°C° 0 mm 2 mps 751 mmHg 98%
    04:00 +9°C° 0 mm 2 mps 751 mmHg 98%
    05:00 +9°C° 0 mm 2 mps 752 mmHg 98%
    06:00 +12°C° 0 mm 2 mps 752 mmHg 93%
    07:00 +13°C° 0 mm 2 mps 752 mmHg 87%
    08:00 +15°C° 0 mm 2 mps 753 mmHg 82%
    09:00 +16°C° 0 mm 2 mps 753 mmHg 76%
    10:00 +18°C° 0 mm 2 mps 753 mmHg 70%
    11:00 +19°C° 0 mm 2 mps 753 mmHg 65%
    12:00 +19°C° 0 mm 2 mps 753 mmHg 64%
    13:00 +20°C° 0 mm 2 mps 753 mmHg 63%
    14:00 +20°C° 0 mm 2 mps 754 mmHg 61%
    15:00 +20°C° 0 mm 2 mps 753 mmHg 65%
    16:00 +20°C° 0 mm 1 mps 753 mmHg 68%
    17:00 +20°C° 0 mm 1 mps 753 mmHg 72%
    18:00 +18°C° 0 mm 1 mps 754 mmHg 77%
    19:00 +14°C° 0 mm 0 mps 754 mmHg 83%
    20:00 +12°C° 0 mm 0 mps 754 mmHg 89%
    21:00 +12°C° 0 mm 0 mps 754 mmHg 90%
    22:00 +13°C° 0 mm 1 mps 754 mmHg 91%
    23:00 +12°C° 0 mm 1 mps 754 mmHg 92%

    Day after tomorrow, 26 August, Monday

    Time Temperature Precipitation Wind Pressure Humidity
    00:00 +13°C° 0 mm 1 mps 754 mmHg 91%
    01:00 +13°C° 0 mm 1 mps 754 mmHg 90%
    02:00 +13°C° 0 mm 1 mps 754 mmHg 89%
    03:00 +13°C° 0 mm 1 mps 754 mmHg 90%
    04:00 +12°C° 0 mm 2 mps 754 mmHg 91%
    05:00 +12°C° 0 mm 2 mps 753 mmHg 91%
    06:00 +13°C° 0 mm 2 mps 753 mmHg 85%
    07:00 +15°C° 0 mm 2 mps 753 mmHg 80%
    08:00 +16°C° 0 mm 2 mps 753 mmHg 74%
    09:00 +18°C° 0 mm 3 mps 753 mmHg 68%
    10:00 +19°C° 0 mm 3 mps 752 mmHg 63%
    11:00 +21°C° 0 mm 3 mps 752 mmHg 58%
    12:00 +21°C° 0 mm 4 mps 752 mmHg 57%
    13:00 +21°C° 0 mm 4 mps 751 mmHg 56%
    14:00 +22°C° 0 mm 4 mps 751 mmHg 55%
    15:00 +21°C° 0 mm 3 mps 750 mmHg 60%
    16:00 +20°C° 0 mm 3 mps 750 mmHg 64%
    17:00 +20°C° 0 mm 3 mps 749 mmHg 69%
    18:00 +19°C° 0 mm 3 mps 749 mmHg 72%
    19:00 +18°C° 0 mm 3 mps 748 mmHg 74%
    20:00 +17°C° 0 mm 3 mps 748 mmHg 77%
    21:00 +16°C° 0.2 mm 3 mps 748 mmHg 81%
    22:00 +16°C° 0.2 mm 3 mps 748 mmHg 85%
    23:00 +16°C° 0.2 mm 3 mps 747 mmHg 89%

    27 August, Tuesday

    Time Temperature Precipitation Wind Pressure Humidity
    00:00 +14°C° 0 mm 3 mps 747 mmHg 92%
    01:00 +14°C° 0 mm 3 mps 747 mmHg 95%
    02:00 +14°C° 0 mm 2 mps 747 mmHg 97%
    03:00 +14°C° 0 mm 2 mps 747 mmHg 98%
    04:00 +14°C° 0 mm 2 mps 747 mmHg 98%
    05:00 +14°C° 0 mm 2 mps 747 mmHg 98%
    06:00 +13°C° 0 mm 3 mps 747 mmHg 92%
    07:00 +14°C° 0 mm 3 mps 747 mmHg 85%
    08:00 +16°C° 0 mm 3 mps 747 mmHg 79%
    09:00 +15°C° 0 mm 4 mps 747 mmHg 73%
    10:00 +17°C° 0 mm 4 mps 748 mmHg 67%
    11:00 +17°C° 0 mm 5 mps 748 mmHg 61%
    12:00 +17°C° 0 mm 5 mps 748 mmHg 61%
    13:00 +17°C° 0 mm 5 mps 748 mmHg 60%
    14:00 +17°C° 0 mm 5 mps 748 mmHg 59%
    15:00 +16°C° 0 mm 5 mps 749 mmHg 59%
    16:00 +17°C° 0 mm 4 mps 749 mmHg 60%
    17:00 +16°C° 0 mm 3 mps 749 mmHg 60%
    18:00 +13°C° 0 mm 3 mps 750 mmHg 64%
    19:00 +11°C° 0 mm 3 mps 750 mmHg 68%
    20:00 +9°C° 0 mm 2 mps 750 mmHg 73%
    21:00 +8°C° 0 mm 2 mps 751 mmHg 74%
    22:00 +7°C° 0 mm 2 mps 751 mmHg 76%
    23:00 +6°C° 0 mm 2 mps 752 mmHg 77%

    28 August, Wednesday

    Time Temperature Precipitation Wind Pressure Humidity
    00:00 +6°C° 0 mm 2 mps 752 mmHg 80%
    01:00 +5°C° 0 mm 2 mps 752 mmHg 82%
    02:00 +5°C° 0 mm 2 mps 752 mmHg 84%
    03:00 +4°C° 0 mm 2 mps 752 mmHg 86%
    04:00 +4°C° 0 mm 2 mps 752 mmHg 88%
    05:00 +3°C° 0 mm 2 mps 753 mmHg 89%
    06:00 +5°C° 0 mm 2 mps 753 mmHg 81%
    07:00 +7°C° 0 mm 3 mps 753 mmHg 72%
    08:00 +8°C° 0 mm 3 mps 753 mmHg 63%
    09:00 +10°C° 0 mm 3 mps 753 mmHg 58%
    10:00 +11°C° 0 mm 3 mps 753 mmHg 53%
    11:00 +12°C° 0 mm 3 mps 753 mmHg 48%
    12:00 +13°C° 0 mm 3 mps 753 mmHg 46%
    13:00 +14°C° 0 mm 3 mps 753 mmHg 45%
    14:00 +14°C° 0 mm 3 mps 753 mmHg 43%
    15:00 +14°C° 0 mm 3 mps 752 mmHg 48%
    16:00 +15°C° 0 mm 2 mps 752 mmHg 53%
    17:00 +15°C° 0 mm 1 mps 752 mmHg 58%
    18:00 +13°C° 0 mm 1 mps 752 mmHg 62%
    19:00 +11°C° 0 mm 1 mps 752 mmHg 66%
    20:00 +9°C° 0 mm 1 mps 752 mmHg 71%
    21:00 +9°C° 0 mm 1 mps 753 mmHg 72%
    22:00 +8°C° 0 mm 1 mps 753 mmHg 73%
    23:00 +8°C° 0 mm 1 mps 753 mmHg 74%

    29 August, Thursday

    Time Temperature Precipitation Wind Pressure Humidity
    00:00 +8°C° 0 mm 1 mps 753 mmHg 72%
    01:00 +7°C° 0 mm 0 mps 753 mmHg 70%
    02:00 +7°C° 0 mm 0 mps 753 mmHg 69%
    03:00 +7°C° 0 mm 0 mps 753 mmHg 70%
    04:00 +7°C° 0 mm 0 mps 753 mmHg 71%
    05:00 +6°C° 0 mm 0 mps 753 mmHg 72%
    06:00 +8°C° 0 mm 0 mps 753 mmHg 70%
    07:00 +9°C° 0 mm 0 mps 753 mmHg 69%
    08:00 +11°C° 0 mm 0 mps 753 mmHg 67%
    09:00 +11°C° 0.3 mm 1 mps 753 mmHg 74%
    10:00 +10°C° 0.3 mm 1 mps 753 mmHg 80%
    11:00 +10°C° 0.3 mm 1 mps 753 mmHg 87%
    12:00 +10°C° 0.1 mm 1 mps 753 mmHg 85%
    13:00 +11°C° 0.1 mm 1 mps 752 mmHg 82%
    14:00 +11°C° 0.1 mm 0 mps 752 mmHg 80%
    15:00 +11°C° 0 mm 0 mps 752 mmHg 80%
    16:00 +13°C° 0 mm 1 mps 752 mmHg 79%
    17:00 +13°C° 0 mm 1 mps 752 mmHg 79%
    18:00 +11°C° 0 mm 1 mps 752 mmHg 85%
    19:00 +10°C° 0 mm 1 mps 752 mmHg 90%
    20:00 +8°C° 0 mm 1 mps 752 mmHg 95%
    21:00 +8°C° 0 mm 1 mps 753 mmHg 95%
    22:00 +6°C° 0 mm 0 mps 753 mmHg 96%
    23:00 +6°C° 0 mm 0 mps 753 mmHg 96%
    Show more